| time (UTC) | temp F | wind direction | speed MPH | gust MPH | rain 1hr in | rain 24hr in | rain mn in | humidity % | barometer mb |
| 20260503224806 | 57 | 231 | 7.0 | 13.0 | 0.02 | 1.16 | 0.02 | 93 | 1014.2 |
| 20260503224304 | 57 | 214 | 6.0 | 10.0 | 0.02 | 1.16 | 0.02 | 93 | 1014.2 |
| 20260503222304 | 57 | 214 | 5.0 | 10.0 | 0.02 | 1.16 | 0.02 | 93 | 1014.3 |
| 20260503221303 | 57 | 215 | 4.0 | 7.0 | 0.02 | 1.16 | 0.02 | 93 | 1014.4 |
| 20260503220305 | 58 | 223 | 5.0 | 7.0 | 0.00 | 1.13 | 0.00 | 93 | 1014.3 |
| 20260503215803 | 58 | 233 | 5.0 | 9.0 | 0.00 | 1.13 | 1.13 | 93 | 1014.3 |
| 20260503215304 | 58 | 247 | 5.0 | 7.0 | 0.00 | 1.13 | 1.13 | 93 | 1014.3 |
| 20260503214303 | 58 | 243 | 5.0 | 9.0 | 0.00 | 1.13 | 1.13 | 93 | 1014.3 |
| 20260503213306 | 57 | 250 | 7.0 | 12.0 | 0.00 | 1.13 | 1.13 | 93 | 1014.3 |
| 20260503212304 | 58 | 255 | 6.0 | 12.0 | 0.00 | 1.13 | 1.13 | 93 | 1014.3 |
| 20260503210306 | 58 | 227 | 7.0 | 14.0 | 0.00 | 1.13 | 1.13 | 93 | 1014.1 |
| 20260503204805 | 58 | 281 | 9.0 | 15.0 | 0.03 | 1.13 | 1.13 | 93 | 1013.8 |
| 20260503204303 | 58 | 271 | 7.0 | 13.0 | 0.06 | 1.13 | 1.13 | 93 | 1013.7 |
| 20260503203306 | 57 | 258 | 10.0 | 15.0 | 0.09 | 1.13 | 1.13 | 93 | 1013.6 |
| 20260503201303 | 57 | 270 | 12.0 | 18.0 | 0.72 | 1.13 | 1.13 | 93 | 1013.4 |
| 20260503200307 | 57 | 254 | 12.0 | 21.0 | 1.08 | 1.13 | 1.13 | 92 | 1013.2 |
| 20260503195304 | 57 | 272 | 9.0 | 20.0 | 1.07 | 1.13 | 1.13 | 92 | 1013.2 |
| 20260503194806 | 58 | 257 | 11.0 | 20.0 | 1.05 | 1.10 | 1.10 | 92 | 1013.2 |
| 20260503193306 | 58 | 304 | 12.0 | 22.0 | 0.98 | 1.04 | 1.04 | 92 | 1012.8 |
| 20260503192305 | 58 | 278 | 12.0 | 20.0 | 0.85 | 0.91 | 0.91 | 91 | 1012.5 |
| 20260503191807 | 58 | 300 | 16.0 | 26.0 | 0.64 | 0.69 | 0.69 | 91 | 1012.3 |
| 20260503191304 | 59 | 273 | 13.0 | 25.0 | 0.36 | 0.42 | 0.42 | 90 | 1012.1 |
| 20260503190306 | 61 | 261 | 6.0 | 9.0 | 0.00 | 0.06 | 0.06 | 89 | 1011.8 |
| 20260503185803 | 61 | 29 | 3.0 | 5.0 | 0.00 | 0.06 | 0.06 | 89 | 1011.4 |
| 20260503185304 | 61 | 51 | 4.0 | 6.0 | 0.00 | 0.06 | 0.06 | 89 | 1011.3 |
| 20260503184806 | 61 | 54 | 5.0 | 8.0 | 0.00 | 0.06 | 0.06 | 89 | 1011.2 |
| 20260503184303 | 61 | 35 | 6.0 | 8.0 | 0.00 | 0.06 | 0.06 | 89 | 1011.3 |
| 20260503182305 | 62 | 21 | 6.0 | 8.0 | 0.00 | 0.06 | 0.06 | 89 | 1011.4 |
| 20260503180804 | 61 | 6 | 6.0 | 7.0 | 0.00 | 0.06 | 0.06 | 89 | 1011.5 |
| 20260503180306 | 61 | 347 | 5.0 | 8.0 | 0.00 | 0.06 | 0.06 | 89 | 1011.5 |
| 20260503175803 | 61 | 13 | 7.0 | 9.0 | 0.00 | 0.06 | 0.06 | 89 | 1011.5 |
| 20260503175304 | 61 | 12 | 6.0 | 9.0 | 0.00 | 0.06 | 0.06 | 90 | 1011.5 |
| 20260503173803 | 61 | 356 | 8.0 | 12.0 | 0.00 | 0.06 | 0.06 | 90 | 1011.4 |
| 20260503171806 | 61 | 349 | 8.0 | 9.0 | 0.00 | 0.06 | 0.06 | 90 | 1011.6 |
| 20260503171304 | 61 | 352 | 7.0 | 9.0 | 0.00 | 0.06 | 0.06 | 91 | 1011.6 |
| 20260503170306 | 62 | 348 | 6.0 | 7.0 | 0.00 | 0.06 | 0.06 | 91 | 1011.7 |
| 20260503131304 | 63 | 19 | 7.0 | 12.0 | 0.00 | 0.27 | 0.03 | 87 | 1012.1 |
| 20260503080803 | 60 | 344 | 1.0 | 3.0 | 0.00 | 0.35 | 0.03 | 95 | 1013.6 |
| 20260503072803 | 59 | 201 | 0.0 | 1.0 | 0.00 | 0.44 | 0.03 | 95 | 1013.3 |
| 20260503071303 | 58 | 201 | 1.0 | 3.0 | 0.00 | 0.44 | 0.03 | 95 | 1013.3 |
| 20260503070804 | 57 | 201 | 0.0 | 1.0 | 0.00 | 0.44 | 0.03 | 95 | 1013.3 |
| 20260503060306 | 56 | 190 | 1.0 | 2.0 | 0.00 | 0.44 | 0.03 | 94 | 1013.1 |
| 20260503053804 | 56 | 174 | 3.0 | 6.0 | 0.00 | 0.44 | 0.03 | 94 | 1013.0 |
| 20260503053307 | 56 | 141 | 5.0 | 8.0 | 0.00 | 0.44 | 0.03 | 94 | 1013.0 |
| 20260503051303 | 57 | 180 | 2.0 | 3.0 | 0.00 | 0.44 | 0.03 | 94 | 1013.0 |
| 20260503050803 | 57 | 173 | 2.0 | 3.0 | 0.00 | 0.44 | 0.03 | 94 | 1013.0 |
| 20260503045305 | 56 | 180 | 2.0 | 3.0 | 0.00 | 0.44 | 0.03 | 94 | 1013.0 |
| 20260503044806 | 56 | 170 | 2.0 | 5.0 | 0.00 | 0.44 | 0.03 | 94 | 1013.1 |
| 20260503043804 | 57 | 176 | 2.0 | 3.0 | 0.00 | 0.44 | 0.03 | 94 | 1012.9 |
| 20260503041807 | 57 | 201 | 3.0 | 5.0 | 0.00 | 0.44 | 0.03 | 94 | 1012.9 |
| 20260503040306 | 57 | 206 | 3.0 | 6.0 | 0.00 | 0.44 | 0.03 | 94 | 1012.9 |
| 20260503034806 | 57 | 197 | 3.0 | 3.0 | 0.00 | 0.44 | 0.03 | 94 | 1013.1 |
| 20260503032803 | 58 | 204 | 3.0 | 5.0 | 0.00 | 0.44 | 0.03 | 94 | 1013.1 |
| 20260503031304 | 58 | 192 | 2.0 | 3.0 | 0.00 | 0.44 | 0.03 | 94 | 1013.1 |
| 20260503030803 | 58 | 183 | 2.0 | 3.0 | 0.00 | 0.44 | 0.03 | 94 | 1013.1 |
| 20260503025803 | 58 | 171 | 2.0 | 3.0 | 0.00 | 0.44 | 0.03 | 94 | 1013.2 |
| 20260503025305 | 58 | 207 | 2.0 | 3.0 | 0.00 | 0.44 | 0.03 | 94 | 1013.2 |
| 20260503023306 | 58 | 197 | 1.0 | 3.0 | 0.00 | 0.44 | 0.03 | 94 | 1013.3 |
| 20260503022803 | 58 | 197 | 2.0 | 3.0 | 0.00 | 0.44 | 0.03 | 94 | 1013.3 |
| 20260503022305 | 58 | 201 | 2.0 | 3.0 | 0.00 | 0.44 | 0.03 | 94 | 1013.3 |
| 20260503021806 | 58 | 206 | 3.0 | 5.0 | 0.00 | 0.44 | 0.03 | 93 | 1013.4 |
| 20260503020306 | 58 | 212 | 2.0 | 3.0 | 0.00 | 0.44 | 0.03 | 93 | 1013.4 |
| 20260503015803 | 58 | 197 | 3.0 | 6.0 | 0.00 | 0.44 | 0.03 | 93 | 1013.6 |
| 20260503015305 | 58 | 225 | 3.0 | 5.0 | 0.00 | 0.44 | 0.03 | 93 | 1013.6 |
| 20260503013305 | 59 | 157 | 0.0 | 0.0 | 0.00 | 0.44 | 0.03 | 93 | 1013.6 |
| 20260503012803 | 59 | 157 | 0.0 | 3.0 | 0.00 | 0.44 | 0.03 | 93 | 1013.6 |
| 20260503012305 | 59 | 157 | 1.0 | 3.0 | 0.00 | 0.44 | 0.03 | 93 | 1013.7 |
| 20260503011304 | 59 | 157 | 0.0 | 3.0 | 0.00 | 0.44 | 0.03 | 93 | 1014.0 |
| 20260503001805 | 59 | 209 | 0.0 | 3.0 | 0.03 | 0.44 | 0.03 | 93 | 1014.3 |
| 20260502235803 | 60 | 209 | 2.0 | 3.0 | 0.03 | 0.44 | 0.03 | 93 | 1014.4 |
| 20260502234807 | 60 | 210 | 2.0 | 3.0 | 0.03 | 0.44 | 0.03 | 93 | 1014.4 |
| 20260502233803 | 60 | 249 | 1.0 | 3.0 | 0.02 | 0.43 | 0.02 | 93 | 1014.5 |
| 20260502232803 | 60 | 240 | 4.0 | 5.0 | 0.02 | 0.43 | 0.02 | 93 | 1014.5 |
| 20260502230806 | 60 | 235 | 3.0 | 5.0 | 0.00 | 0.41 | 0.00 | 93 | 1014.5 |
| 20260502225803 | 60 | 228 | 4.0 | 7.0 | 0.00 | 0.41 | 0.00 | 93 | 1014.5 |